Location: Unspecified
(0.0000°N, 0.0000°E)
Time: 19:18:48
(UTC+00:00)

Vanguard 2 - Pass Details

Date: 08 December 2017
Orbit: 553 x 2940 km, 32.9° (Epoch: 18 January)

Event Time Altitude Azimuth Distance (km) Brightness Sun altitude
Rises 02:02:02 0° 294° (WNW) 4,090 - -51.0°
Reaches altitude 10° 02:04:25 10° 291° (WNW) 3,377 - -50.6°
Maximum altitude 02:13:17 62° 212° (SSW) 2,078 - -48.8°
Exits shadow 02:15:52 53° 169° (SSE) 2,395 9.9 -48.3°
Drops below altitude 10° 02:27:59 10° 134° (SE) 5,350 12.3 -45.8°
Sets 02:32:51 0° 131° (SE) 6,586 13.0 -44.7°
